Wind_Speed
33 32 32 31 31 31 30 30 31 32 33 33 34 35 35 34 33 33 34 34 35 35 36 36 37 36 36 36 37 37 37 37 37 38 38 38 39 39 38 37 37 35 32 31 31 33 34 35 36 36 37 37 37 37 36 36 35 34 35 36 37 38 38 35 33 32 31 30 28 26 25 25 26 29 31 32 30 30 32 32 31 30 30 30 30 30 30
33 32 32 32 32 32 32 33 33 33 34 34 35 35 36 36 35 36 36 37 37 38 40 41 41 41 40 40 40 40 41 41 42 42 42 42 42 42 42 42 42 41 40 41 41 40 37 35 36 37 37 37 37 36 36 36 36 37 38 38 38 38 38 36 34 34 35 34 33 32 33 34 35 36 38 39 38 39 42 41 39 36 35 35 35 35 35
36 36 36 36 35 34 36 36 36 36 36 36 37 37 38 38 39 39 39 40 41 42 44 44 45 44 44 44 43 43 43 43 44 44 44 44 44 44 44 45 46 46 46 47 48 46 43 40 39 39 38 37 37 37 38 39 40 41 41 41 40 40 39 39 38 37 37 37 37 37 39 40 41 41 42 44 44 43 43 42 41 40 40 40 39 39 39
36 35 34 35 34 35 36 36 37 38 39 39 39 39 40 41 41 41 42 42 43 45 46 47 47 47 47 47 46 46 46 46 45 45 45 45 46 46 46 47 47 46 47 49 50 50 49 47 44 43 41 39 39 39 40 41 42 42 42 42 41 40 40 41 41 40 39 39 40 40 41 41 42 43 43 44 45 45 45 45 44 44 44 44 43 43 43
37 37 36 35 35 34 35 36 36 38 39 39 40 41 41 42 43 43 42 43 44 45 46 46 47 47 48 48 47 46 46 45 45 45 44 45 46 47 48 48 47 46 47 49 50 50 51 50 49 47 46 45 45 46 47 47 46 45 44 43 42 42 42 42 42 42 41 41 41 41 42 43 43 43 42 41 41 42 44 44 44 43 43 43 43 44 44
40 40 40 39 39 39 39 39 39 39 39 40 40 41 42 43 43 43 43 43 44 45 46 46 46 46 47 47 46 45 43 43 42 43 43 43 45 46 47 47 47 47 48 50 50 51 52 52 51 51 49 48 47 48 50 50 48 46 45 46 46 46 46 45 44 43 42 42 42 42 42 43 43 42 41 40 40 40 41 41 41 41 41 42 44 44 44
42 43 43 42 43 43 42 42 43 43 43 43 43 43 44 44 45 45 45 45 45 46 47 46 46 45 46 46 45 45 45 45 44 45 44 43 44 44 45 45 45 46 48 49 50 50 51 52 52 52 51 50 49 51 52 51 49 48 49 49 49 48 48 47 47 46 44 43 43 42 42 42 42 42 42 41 41 42 42 42 43 44 45 46 46 46 46
44 46 46 45 45 45 44 44 45 45 45 46 45 45 46 46 46 46 45 46 46 47 48 48 47 47 48 48 49 49 50 50 49 49 47 46 45 44 44 45 45 45 46 48 48 47 47 48 49 49 49 49 50 51 52 52 52 52 52 52 52 52 51 50 50 48 46 44 44 44 43 43 43 43 44 44 45 45 47 48 48 49 50 50 48 47 46
44 45 46 46 47 48 47 46 45 45 45 46 46 47 48 48 48 48 47 48 48 49 50 51 51 52 52 53 53 53 53 52 51 50 49 47 46 46 46 46 46 46 47 48 47 46 44 44 45 45 45 45 47 47 48 49 50 51 52 53 53 52 52 52 52 51 49 48 46 44 43 43 44 45 47 48 49 50 50 51 52 52 52 52 50 48 46
46 47 47 48 49 50 49 47 46 45 44 44 45 46 48 49 50 49 49 49 50 50 51 51 52 53 53 53 54 54 53 52 52 51 50 49 47 47 47 47 47 47 48 49 49 47 45 44 46 46 46 46 46 45 44 45 46 47 49 51 51 51 50 50 51 52 51 50 47 45 45 46 47 49 50 51 51 52 52 53 53 53 53 52 52 51 49
49 49 50 50 50 50 49 47 46 44 43 44 44 44 46 48 48 49 50 50 50 50 50 50 51 51 52 52 52 52 51 50 49 49 50 50 49 48 47 47 48 48 49 49 49 49 49 48 48 48 49 48 46 45 44 44 45 46 47 48 50 50 49 48 48 48 49 49 48 48 49 50 51 51 52 52 52 53 53 54 54 54 53 52 52 51 51
49 49 49 49 49 48 48 47 45 44 43 43 43 43 45 46 46 47 49 49 49 49 48 48 48 49 50 50 50 49 48 48 47 47 47 47 48 48 49 49 49 49 50 50 51 51 53 53 53 53 53 53 52 51 51 49 47 46 46 46 48 49 49 49 49 50 50 50 51 51 52 53 54 54 54 54 54 54 55 55 54 54 53 53 52 52 52
48 48 48 48 48 48 48 47 47 46 44 44 44 46 47 47 47 48 49 49 49 49 49 48 48 47 48 48 48 49 49 48 49 49 48 46 46 47 50 51 51 51 51 52 53 54 55 56 58 59 60 61 61 61 61 59 55 52 50 49 49 50 51 52 54 55 56 56 57 58 58 58 58 57 56 56 55 55 55 54 54 53 53 52 52 52 52
46 46 47 47 47 48 48 48 48 47 44 43 44 44 45 45 45 45 45 45 46 46 47 47 46 46 47 48 48 49 50 50 50 51 53 53 52 53 54 55 56 56 56 57 57 57 58 58 59 61 62 64 65 66 66 66 66 64 63 61 60 60 60 60 61 62 63 64 65 64 62 60 58 57 56 56 55 55 55 54 52 51 50 50 50 50 51
40 41 41 42 43 45 46 47 46 45 43 43 42 42 41 40 40 40 41 42 44 45 46 47 48 48 49 50 51 51 52 53 54 54 56 57 58 58 59 59 60 60 60 61 61 61 61 61 62 63 64 64 66 67 68 68 69 70 70 70 70 69 69 68 68 68 68 68 67 65 63 60 58 58 57 56 55 54 53 52 50 49 48 48 48 49 49
37 39 40 41 41 42 43 43 43 43 42 42 41 41 41 42 43 44 45 46 48 49 50 51 51 52 52 53 54 55 56 57 57 58 58 58 59 59 59 60 61 61 62 62 62 62 63 63 63 64 65 65 66 67 67 68 69 70 70 71 71 70 69 68 67 67 67 66 65 64 62 61 60 59 58 57 54 52 50 49 48 47 47 47 48 48 48
38 40 41 42 42 42 42 43 43 43 43 43 43 44 45 46 48 48 49 50 50 51 52 53 53 54 55 55 56 56 57 58 58 58 58 58 59 59 59 59 59 60 61 62 62 63 63 64 64 65 65 66 66 66 67 67 67 68 68 69 70 69 68 66 64 64 64 63 63 62 61 61 60 58 58 57 55 53 51 49 48 47 47 47 47 47 48
38 40 42 43 43 43 45 46 45 45 45 46 46 47 48 48 49 49 49 50 50 50 51 51 52 52 53 53 54 54 55 55 56 56 56 57 58 58 58 58 58 59 60 61 61 62 63 64 65 65 66 66 66 66 66 66 66 66 67 68 68 69 68 67 65 63 62 62 61 60 60 60 59 58 57 56 54 53 52 51 49 49 47 46 44 45 45
37 39 41 43 44 45 46 46 46 46 46 47 47 48 48 48 48 48 48 48 48 48 49 49 49 50 50 51 51 52 52 53 54 54 54 55 56 57 57 57 57 58 58 58 59 60 61 62 63 64 65 65 66 66 66 66 66 66 66 66 67 67 67 67 66 64 63 62 60 59 59 59 59 58 56 55 53 52 52 51 50 49 47 45 43 42 42
35 36 38 39 41 42 43 43 43 44 44 45 45 46 45 45 45 46 46 47 48 48 49 49 50 50 51 52 52 52 53 54 55 55 55 55 56 56 57 57 57 57 57 56 57 57 58 59 61 62 63 63 64 64 64 64 64 65 65 65 65 65 65 65 65 64 63 61 60 59 60 60 59 58 56 55 53 52 51 50 50 49 47 45 43 43 43
31 32 33 35 36 38 39 39 40 40 40 41 42 43 44 44 44 45 46 48 49 50 50 51 52 52 53 54 54 54 55 56 56 56 56 56 57 57 57 58 58 58 58 57 57 57 57 58 60 61 62 62 63 63 63 63 63 63 63 63 63 62 62 62 62 62 61 60 59 59 60 60 59 58 57 56 54 53 51 50 48 48 46 45 44 43 44
27 28 29 31 33 35 36 37 37 37 38 40 41 42 43 44 45 46 47 48 50 51 52 53 53 54 55 56 56 57 57 57 57 57 57 58 58 58 58 59 59 59 59 59 59 58 57 58 60 60 60 61 62 62 63 63 63 63 62 62 61 60 60 60 60 60 59 59 57 56 56 56 56 56 56 56 54 53 51 49 48 47 46 44 43 43 42
26 28 30 31 32 34 35 35 36 37 38 39 41 42 42 43 44 45 46 48 49 50 52 53 54 55 55 56 56 57 56 56 56 56 57 57 57 57 57 57 57 58 58 58 59 58 58 59 59 59 59 60 60 62 63 64 64 63 63 62 61 60 60 59 59 58 58 58 57 55 53 52 53 53 54 54 53 51 50 48 47 46 45 44 43 42 41
28 29 30 31 32 33 33 34 35 36 37 38 40 41 42 43 45 46 46 47 47 47 48 48 49 49 49 49 49 50 49 49 50 50 50 51 50 50 51 51 51 52 52 53 54 55 56 56 57 58 58 58 59 60 61 62 63 63 63 63 62 61 60 59 58 58 57 57 56 54 51 51 51 50 50 50 50 48 47 47 46 45 44 44 43 41 41
28 29 30 30 31 32 33 34 35 35 36 37 39 40 40 41 42 42 41 40 39 39 38 37 36 37 37 37 38 40 40 40 40 40 40 40 41 42 42 43 44 44 45 45 46 47 48 49 50 52 54 55 56 57 58 59 60 62 62 63 62 61 61 60 60 59 57 56 55 53 51 51 51 48 46 47 47 46 46 45 44 44 44 43 42 42 41
26 27 29 29 30 31 32 33 34 34 35 36 36 36 35 34 33 31 30 29 28 27 27 26 27 28 30 31 32 33 33 33 33 33 33 33 33 35 36 37 38 38 39 39 39 40 41 42 43 45 47 48 49 51 53 54 56 58 59 60 61 60 60 59 59 59 58 56 55 53 51 50 49 47 46 46 45 45 44 44 43 43 42 42 41 41 41
25 26 27 27 28 29 30 31 32 32 32 32 31 28 25 24 23 23 22 21 21 22 22 23 24 26 27 28 27 27 27 26 25 26 27 27 27 28 28 29 29 30 30 31 32 33 34 35 37 39 41 41 43 45 47 49 52 53 55 56 57 58 57 57 58 58 57 56 55 53 52 50 49 48 47 45 44 44 43 42 41 41 40 40 40 40 40
24 24 25 26 26 27 28 28 27 26 27 26 23 20 19 19 19 18 18 18 20 21 22 24 24 25 25 25 24 23 22 21 20 21 22 22 22 22 22 23 24 25 26 27 28 29 30 30 31 31 32 34 37 39 42 44 46 47 48 49 51 52 53 54 54 55 55 55 54 53 52 50 49 48 47 45 44 42 40 40 39 39 38 38 38 38 38
23 23 24 25 26 25 24 22 21 21 21 20 18 16 16 16 16 16 16 18 19 21 23 23 23 22 22 21 19 18 18 17 16 16 16 16 17 17 17 17 18 20 21 22 23 24 25 26 26 25 26 27 30 32 35 37 39 39 39 40 41 43 45 47 49 50 51 51 51 50 50 49 47 46 45 44 42 40 38 38 37 36 36 36 35 35 35
22 23 24 25 24 22 20 18 17 17 17 15 14 13 13 13 14 15 16 17 19 20 20 17 15 14 13 13 12 11 11 10 10 10 11 11 12 12 12 13 14 14 13 13 14 14 14 15 15 15 16 18 20 21 23 25 27 29 31 32 33 34 36 38 41 44 45 45 45 45 45 44 43 42 42 41 39 37 35 34 33 32 32 31 30 30 30
22 23 24 23 21 18 16 15 14 14 13 12 11 11 12 12 13 14 15 17 18 16 12 8 8 10 13 15 15 14 13 12 11 11 10 10 10 8 8 8 9 10 10 9 8 7 5 5 5 5 6 7 8 8 9 11 12 14 17 20 22 24 26 29 31 34 36 38 38 38 37 37 36 36 35 34 33 31 29 28 27 26 24 23 23 23 24
22 23 22 21 17 15 14 13 11 11 11 11 10 10 10 11 13 14 14 15 13 8 5 5 7 11 15 17 18 19 20 19 18 17 17 16 16 15 15 15 16 16 16 15 13 11 9 7 5 5 4 4 4 4 4 4 5 7 9 11 13 15 17 19 21 23 25 27 29 29 27 26 26 27 27 26 25 24 23 22 21 19 17 17 18 19 19
22 22 20 18 14 12 12 11 9 9 10 10 9 9 10 12 13 12 11 11 7 3 4 5 7 11 14 17 18 19 20 20 20 20 19 18 19 20 22 23 21 18 16 16 16 14 11 9 8 9 9 6 3 3 3 1 1 4 7 9 9 10 11 12 14 16 18 20 22 23 23 22 21 21 22 21 21 20 19 18 17 15 15 15 16 15 15
21 20 17 15 12 11 10 9 9 8 8 8 9 9 10 11 11 9 9 8 4 2 4 4 5 7 10 13 16 17 18 19 20 21 22 21 20 20 21 21 20 17 16 16 15 14 13 13 15 16 16 14 10 5 3 6 7 5 5 7 8 9 10 11 12 14 15 17 19 21 23 22 22 22 22 20 18 18 18 17 16 15 14 15 15 14 14
20 17 14 12 11 10 10 9 8 7 7 7 8 8 9 10 8 7 8 7 1 3 3 3 3 5 7 9 12 14 16 17 19 20 21 22 21 20 19 18 18 17 17 16 14 14 15 17 19 19 17 15 14 11 11 14 15 15 14 14 14 14 13 13 14 15 17 19 21 23 24 24 24 23 21 18 17 18 18 17 16 15 15 15 15 14 15
18 15 12 10 10 10 9 9 7 6 5 6 7 7 9 10 8 6 7 5 1 3 1 2 4 6 8 8 9 11 14 15 15 16 18 21 21 20 19 17 15 15 16 17 17 18 18 18 18 17 16 15 15 15 14 14 14 15 18 21 23 24 25 25 25 25 25 26 26 26 25 23 21 20 19 17 17 17 17 16 16 16 16 16 16 16 17
16 13 10 10 10 9 9 8 7 5 5 6 6 6 8 10 8 5 5 4 1 4 3 3 4 6 8 7 7 9 10 12 13 14 17 19 20 19 18 17 15 15 15 15 16 18 20 19 19 18 17 16 16 16 15 14 13 14 16 18 20 22 24 25 26 26 25 23 22 20 19 17 17 17 17 16 15 16 16 17 17 17 18 18 18 18 19
14 11 10 9 9 9 8 7 6 5 5 6 6 6 7 9 8 5 3 3 4 6 6 4 4 5 6 5 5 6 8 9 12 14 15 16 17 16 15 15 15 15 15 15 15 16 18 19 19 19 18 18 18 18 18 17 17 16 16 16 15 14 15 16 17 17 17 16 15 15 15 14 14 14 15 15 14 14 15 15 16 17 17 18 18 18 19
12 11 10 9 9 9 8 6 6 5 5 6 7 7 7 8 9 6 3 4 5 6 6 5 4 4 4 2 3 4 5 7 9 10 11 12 13 14 15 16 16 15 15 16 16 16 16 17 17 17 17 17 18 19 19 20 20 19 18 17 15 14 14 14 14 14 14 13 13 13 13 12 12 13 14 14 13 14 14 15 16 17 17 17 17 17 17
12 11 10 9 9 8 7 5 5 4 5 5 6 6 6 7 8 8 6 5 5 5 4 4 5 5 4 2 1 1 3 5 6 7 6 7 9 11 13 16 17 17 17 17 17 17 17 17 16 16 15 15 15 16 16 17 18 18 18 17 16 15 15 14 13 12 12 12 11 11 11 11 12 12 13 14 14 14 15 16 16 16 15 16 17 18 19
12 11 10 10 9 8 6 4 4 4 4 5 6 5 5 5 6 7 7 6 4 3 4 3 2 3 4 4 4 4 3 4 4 5 4 4 6 7 9 11 14 16 17 18 18 18 18 19 18 16 15 15 14 14 14 14 14 14 14 14 14 14 14 13 12 11 11 10 10 11 11 11 11 12 13 13 14 14 14 15 15 15 15 17 18 19 20
12 12 11 11 11 10 7 5 4 4 4 4 5 4 3 3 3 4 5 5 3 1 1 1 1 1 3 5 6 6 6 5 5 4 3 3 4 4 4 6 8 11 13 15 16 17 18 19 19 18 17 16 15 15 15 14 13 12 12 11 11 11 11 12 12 13 13 13 12 12 11 11 11 11 10 11 11 11 12 13 14 15 17 18 19 19 19
13 13 13 13 12 11 9 7 6 5 5 4 4 4 3 2 1 1 2 3 2 1 2 3 3 3 3 4 6 7 6 6 5 4 2 2 2 3 3 4 5 7 9 10 12 13 14 15 16 17 17 17 16 15 15 15 14 13 13 12 11 10 9 9 9 9 10 11 11 11 11 10 10 9 8 8 9 10 12 14 16 17 17 17 16 16 14
13 14 15 14 14 13 12 10 8 7 6 5 5 4 4 3 2 3 3 1 1 2 2 3 4 4 5 5 4 4 3 2 2 2 2 2 2 3 4 5 6 7 8 8 8 8 9 11 12 12 13 14 15 15 15 15 14 14 13 13 12 11 10 9 9 8 7 7 7 8 8 9 9 9 8 9 11 12 14 16 16 16 16 14 13 12 11
13 14 15 16 16 15 14 13 11 9 8 7 6 5 5 5 4 4 4 3 1 1 2 2 3 4 5 6 6 5 4 3 2 2 2 1 1 1 3 4 5 6 7 7 7 7 6 6 7 8 9 10 11 12 13 13 13 13 12 12 12 11 10 10 9 8 7 6 6 6 6 7 7 8 10 12 14 15 16 16 15 14 13 13 12 11 11
13 14 16 17 17 17 16 15 14 12 10 9 8 7 7 7 6 6 5 5 3 2 2 2 3 3 4 5 6 6 5 4 3 3 3 3 2 2 2 3 3 4 4 5 6 6 6 6 6 5 5 6 6 7 8 8 9 9 9 9 9 9 8 8 8 7 7 6 5 5 4 5 6 8 10 12 14 15 15 15 14 14 13 13 13 12 12
13 15 16 18 19 19 18 17 16 14 13 11 10 9 8 8 8 8 7 7 6 4 4 3 3 3 4 4 4 4 4 4 4 4 4 4 4 3 3 3 3 4 3 3 4 4 5 5 6 7 7 7 6 5 5 5 5 5 6 6 6 6 6 5 5 5 5 4 4 3 3 4 5 7 9 10 12 13 14 14 15 15 15 15 15 14 14
13 14 17 18 19 20 20 19 17 16 15 14 12 11 10 10 10 10 10 10 9 7 6 5 4 4 4 4 3 2 2 2 2 2 2 2 2 2 2 2 3 4 4 4 4 4 4 4 5 5 6 7 7 8 8 8 8 7 7 6 5 5 4 4 3 3 2 1 1 1 2 3 4 6 7 9 11 12 14 15 16 16 16 17 17 17 16
13 14 16 18 20 21 21 21 20 19 18 16 15 14 13 12 12 12 12 12 12 11 10 8 7 6 6 5 4 4 2 1 1 1 2 2 3 3 3 3 3 3 3 3 4 4 4 4 5 5 6 6 7 8 8 9 9 9 9 8 8 8 7 7 6 6 5 5 4 4 4 5 6 7 8 10 11 12 14 15 16 17 18 18 18 19 19
13 14 15 17 20 22 23 23 22 22 21 19 18 17 15 15 14 14 14 14 14 14 13 12 10 10 9 8 8 7 6 5 4 4 4 4 5 5 6 7 7 7 6 6 6 6 6 6 6 6 7 7 7 8 9 9 10 10 10 10 9 9 10 10 10 10 10 10 10 10 10 10 11 11 12 13 13 14 15 16 17 18 19 20 20 21 21
14 14 15 16 19 21 24 25 25 24 23 22 21 20 18 17 17 16 16 15 16 16 16 15 14 13 12 11 11 11 10 9 8 8 7 6 6 7 7 8 9 9 10 10 10 10 10 10 10 10 10 10 10 10 10 11 12 12 13 13 13 13 13 13 13 13 14 14 14 15 15 15 16 16 16 17 17 18 18 19 19 20 21 21 22 22 23
15 15 15 16 17 19 22 25 27 26 25 24 23 22 21 20 19 18 17 17 17 18 18 18 17 16 15 14 14 13 13 12 12 11 11 10 9 9 9 9 9 10 11 12 13 14 14 15 15 15 15 15 15 14 14 14 15 15 16 16 17 18 18 18 18 18 18 18 19 19 19 20 20 20 20 21 21 22 22 23 23 23 24 24 25 25 25
Wind_Direction
233 231 233 235 235 238 243 246 245 245 247 248 248 248 251 255 256 254 255 259 261 262 265 267 269 270 270 271 273 274 274 274 274 275 275 276 277 277 277 277 276 274 267 260 263 272 278 278 278 280 281 282 282 282 281 281 281 281 282 283 283 284 286 286 283 278 274 273 269 261 257 265 272 270 268 268 265 263 271 279 277 273 275 276 274 274 274
244 243 245 246 244 245 249 251 250 248 246 246 246 249 252 254 255 255 256 258 259 262 264 267 268 269 270 271 272 273 275 276 277 277 277 277 277 275 275 274 272 271 268 266 268 272 273 272 274 278 279 279 280 280 279 278 279 280 280 280 279 279 281 281 278 276 276 275 270 262 261 267 269 268 270 273 271 270 272 276 277 277 278 277 276 275 275
254 255 256 256 253 250 249 249 250 249 247 245 246 248 251 253 254 256 257 257 258 261 264 267 269 271 271 272 272 272 272 274 275 277 277 276 275 273 272 270 269 269 268 268 269 269 268 266 269 273 274 275 276 275 275 276 277 280 280 279 277 277 277 278 278 278 277 276 275 272 271 273 273 273 274 275 276 276 277 278 280 281 282 280 279 278 277
258 258 257 257 255 253 251 250 249 248 247 248 249 250 252 254 255 257 259 261 262 264 266 269 271 272 273 273 273 273 272 272 272 273 273 273 272 271 270 269 269 269 268 268 269 269 269 268 268 270 271 272 271 271 272 274 277 280 281 280 278 277 277 278 278 278 277 277 278 278 278 277 277 278 278 278 278 279 280 281 282 283 283 282 281 280 279
256 256 255 255 255 254 253 251 250 250 250 250 251 253 253 255 257 259 261 262 264 266 267 269 270 272 272 272 273 273 273 273 272 271 270 270 270 270 269 269 269 268 268 268 269 269 270 270 271 271 272 271 270 270 270 271 274 276 277 276 276 277 278 278 277 276 276 275 276 277 277 278 278 279 280 281 280 279 279 279 280 280 281 282 281 280 279
259 258 257 256 256 256 256 256 256 256 257 256 256 256 257 258 260 261 262 263 264 265 266 267 268 269 269 270 271 271 272 271 271 271 270 269 270 270 270 269 268 266 266 267 269 270 271 272 272 273 272 272 271 270 270 271 272 272 271 271 272 274 276 277 276 275 274 273 273 274 274 275 275 275 277 279 280 279 277 276 277 279 281 283 282 281 279
265 264 262 261 260 259 260 261 262 262 262 263 263 262 262 263 263 264 264 264 265 265 266 266 265 265 265 266 268 269 270 270 270 269 269 268 268 268 269 269 268 268 268 268 268 269 270 271 272 271 270 269 269 269 270 271 271 269 268 268 269 271 273 275 275 274 272 270 270 271 271 272 272 272 273 276 278 278 277 277 277 279 282 283 282 280 279
265 265 265 265 264 263 262 263 264 264 265 266 266 266 265 265 264 264 263 263 264 264 264 264 263 263 264 266 267 268 269 269 269 269 268 267 266 265 265 265 265 266 267 268 269 270 271 272 272 270 269 268 267 267 267 268 269 268 267 267 267 267 268 270 272 271 269 269 269 269 268 268 269 270 270 272 274 275 276 276 277 279 281 282 281 278 276
262 264 265 266 266 264 264 264 265 266 267 267 266 266 266 265 264 263 262 262 261 261 262 263 263 264 265 267 268 268 268 268 268 268 267 266 265 264 263 262 262 261 260 262 265 268 271 273 272 271 270 269 269 268 266 266 266 267 267 267 266 267 266 266 266 267 268 269 268 266 266 267 269 270 270 272 273 274 275 276 277 278 280 282 282 279 276
262 263 264 264 265 266 266 267 267 266 266 266 266 265 266 265 265 264 263 261 260 260 261 263 264 265 266 268 269 269 269 269 268 268 267 265 263 262 261 260 260 259 258 257 257 259 261 264 267 269 270 271 271 269 265 264 263 263 265 266 265 265 265 264 264 265 266 268 267 265 267 270 271 271 272 272 273 274 275 275 277 278 280 281 281 280 279
264 265 265 266 267 268 268 267 267 266 266 265 265 264 264 263 264 264 264 264 263 263 263 263 264 265 266 267 268 270 270 269 268 268 267 265 263 261 260 259 258 258 257 256 254 253 253 254 257 260 262 265 266 266 264 263 263 262 263 263 262 263 263 262 262 262 262 263 263 265 269 271 272 272 272 272 273 274 274 274 276 277 278 278 277 277 277
264 265 266 266 267 268 268 267 267 266 265 265 263 261 261 262 263 264 265 266 266 266 265 264 264 264 264 265 265 266 267 267 267 267 266 266 264 262 260 259 258 256 255 254 254 252 252 251 251 252 253 255 257 259 261 262 263 263 262 260 259 260 261 261 261 260 259 258 258 263 268 270 270 270 271 271 272 273 273 273 274 275 275 274 274 274 273
263 264 265 266 267 267 267 267 266 265 264 264 262 262 263 264 265 264 264 265 265 265 265 265 264 262 262 261 261 262 263 264 264 264 263 262 262 261 260 259 258 256 255 254 254 253 253 252 252 252 252 253 254 256 258 259 259 258 257 255 256 257 257 258 259 259 259 258 259 263 268 269 269 269 270 271 272 272 272 273 274 274 273 272 272 272 272
261 263 264 265 266 267 267 267 267 267 266 265 265 265 266 266 265 264 265 265 265 265 265 265 264 262 261 260 259 259 260 260 260 261 261 260 261 261 261 261 261 259 258 257 256 255 254 253 253 252 252 253 255 256 257 257 257 256 256 255 256 257 257 257 258 259 261 262 263 266 267 268 268 268 269 271 272 272 273 274 273 273 272 271 270 270 270
261 261 262 262 262 263 265 267 268 268 267 266 266 267 268 267 267 267 267 267 265 264 264 263 262 261 260 259 258 258 258 258 258 259 260 261 261 262 262 263 263 262 261 260 258 257 256 255 254 253 253 253 254 255 255 256 256 256 256 257 258 259 260 260 261 262 263 265 266 267 267 267 266 266 267 269 270 272 273 273 273 272 271 269 268 268 268
253 254 257 259 261 262 264 266 267 268 267 267 267 268 269 269 269 269 268 267 266 265 264 264 264 263 262 262 261 261 260 260 259 259 260 260 261 262 262 262 262 262 262 262 261 260 259 257 256 255 254 254 254 255 255 256 256 256 256 257 258 259 260 262 263 264 265 266 267 268 268 267 266 266 267 268 268 268 269 270 271 270 269 269 268 268 268
242 245 248 253 258 261 263 265 266 267 268 269 271 271 271 271 271 270 270 269 269 269 268 268 268 268 267 267 266 266 265 264 264 263 262 262 262 262 262 262 262 262 262 262 262 261 261 260 259 258 257 256 255 255 255 256 256 257 257 257 257 258 259 260 262 264 265 265 266 266 267 267 267 267 267 267 267 266 266 267 267 266 266 266 267 267 268
242 243 245 248 251 256 261 265 268 270 272 273 273 273 273 272 273 273 273 273 273 273 273 272 272 272 271 271 270 270 269 269 268 267 266 265 265 264 263 262 261 261 261 261 262 262 262 262 262 261 260 260 259 258 257 257 257 257 257 258 258 258 259 259 260 261 263 263 264 264 265 265 266 266 266 266 266 266 266 266 265 265 265 265 265 266 268
252 251 252 253 256 259 263 266 269 271 272 272 272 273 273 274 275 276 276 276 275 275 274 274 274 274 274 273 272 272 271 270 269 268 268 267 266 266 265 264 262 261 260 260 260 260 260 261 261 261 261 261 261 260 260 259 259 259 258 258 258 258 259 259 259 259 260 261 262 262 263 263 263 263 263 264 264 264 264 265 265 266 266 265 264 263 263
256 257 258 260 261 263 264 265 266 267 270 272 274 275 276 277 277 277 278 278 277 277 277 277 276 276 275 275 273 272 272 271 270 270 269 268 268 267 267 266 265 263 261 260 258 257 257 258 259 259 260 260 261 261 260 260 260 259 259 259 259 258 258 258 258 258 258 258 259 259 260 260 261 261 261 261 261 262 263 264 265 266 265 264 263 261 260
255 257 258 260 262 263 265 266 267 269 271 273 275 276 277 278 278 279 280 280 280 280 279 279 279 278 277 276 275 274 273 273 272 271 271 270 269 268 268 267 266 265 264 262 260 258 257 256 256 257 257 258 259 260 260 260 259 259 258 258 258 258 258 258 258 258 258 257 256 256 257 258 259 260 260 260 261 261 262 263 264 265 264 263 262 261 261
260 261 262 262 263 265 267 270 271 272 273 273 274 275 276 278 278 279 279 279 280 280 280 279 279 278 278 277 277 276 275 274 273 272 272 271 270 269 269 268 268 267 266 265 264 262 260 258 257 257 257 257 257 257 258 258 258 258 258 258 258 257 257 257 257 257 257 257 256 255 255 257 258 258 259 259 260 261 262 263 263 263 262 261 260 260 260
266 265 264 264 265 267 269 271 272 273 274 274 275 276 276 276 277 277 277 277 277 278 278 278 278 278 278 278 278 277 277 276 275 273 272 271 270 269 268 268 267 267 267 267 266 264 263 261 259 258 257 256 256 256 256 255 256 256 256 256 257 256 256 256 256 256 256 257 256 255 254 255 255 255 256 257 258 259 260 261 261 261 261 260 260 260 261
270 269 269 269 270 271 271 272 272 273 274 274 275 275 276 276 277 277 277 278 278 278 278 279 279 279 279 279 278 278 277 277 276 275 274 274 272 271 270 269 268 267 267 267 266 266 265 263 262 260 258 257 256 255 255 255 254 254 254 254 254 254 254 254 254 254 254 254 255 255 254 253 253 252 252 254 255 255 256 257 258 258 259 260 261 261 262
271 272 274 274 274 275 275 275 276 276 276 277 277 278 279 279 279 280 280 281 281 281 282 283 283 284 283 282 282 281 280 280 280 280 279 278 276 274 272 271 269 268 267 266 266 266 265 264 264 262 260 259 257 256 256 255 254 254 253 253 252 252 252 252 252 252 252 252 253 253 252 252 252 252 251 251 252 252 253 253 254 255 256 257 259 260 261
272 273 274 275 276 277 278 278 279 281 281 282 283 284 285 285 285 285 285 286 287 289 290 290 290 290 288 287 286 286 286 286 285 284 283 280 278 276 274 272 271 270 269 267 266 266 264 263 263 262 261 260 258 257 256 255 254 254 253 253 252 251 250 250 250 250 251 251 251 251 251 251 251 251 251 250 250 251 251 251 252 252 253 254 256 257 259
275 276 277 279 280 281 282 284 286 287 287 288 289 290 291 291 292 293 294 296 299 300 300 299 297 295 294 294 294 293 291 289 286 284 283 282 281 280 280 279 278 277 275 273 271 269 267 265 264 262 261 259 257 256 254 253 253 253 252 252 252 251 250 249 249 249 249 249 249 249 249 250 250 251 250 250 249 249 250 251 251 251 252 253 255 256 258
282 282 283 285 286 288 289 291 292 292 292 293 295 297 298 299 300 302 305 307 308 307 306 305 304 303 303 301 298 293 290 288 286 285 286 288 289 289 289 287 285 282 279 277 274 272 270 269 268 266 263 260 257 256 254 254 253 253 253 252 251 250 249 248 247 247 247 247 247 247 247 248 248 248 249 249 249 249 250 251 251 252 253 254 256 258 260
287 289 290 292 294 295 296 296 294 292 292 295 299 304 305 306 307 308 310 312 312 311 310 310 312 313 313 310 305 300 297 297 297 297 298 299 298 296 294 292 290 287 284 281 278 276 274 272 271 268 265 261 258 257 256 255 255 254 254 253 250 248 246 245 245 244 244 245 245 245 246 245 245 246 247 248 249 249 250 250 252 253 254 256 257 259 260
296 298 299 299 300 301 300 298 295 293 294 299 306 309 309 309 310 313 316 317 317 317 318 322 328 334 342 349 351 345 337 332 328 325 322 317 313 311 309 306 305 306 304 299 293 288 282 277 274 270 265 262 260 259 258 258 256 254 253 252 250 247 245 243 242 241 240 240 241 242 243 243 243 243 244 245 246 247 248 249 250 251 252 253 253 254 255
303 303 303 303 304 304 302 299 297 298 302 309 313 311 309 312 317 320 322 323 324 327 338 359 14 21 31 40 43 45 47 47 43 38 34 29 24 15 358 344 344 356 8 9 2 350 335 317 304 295 288 284 283 280 273 267 259 253 250 248 246 244 242 241 240 238 236 235 236 237 238 240 240 240 239 241 242 241 241 240 240 241 242 243 243 244 246
306 305 305 304 305 304 301 299 302 307 311 315 317 313 311 316 321 324 327 330 334 348 31 54 46 45 52 56 58 60 63 64 64 65 67 69 71 72 68 61 56 55 55 52 49 45 36 24 11 356 336 316 301 297 296 283 258 243 236 233 232 232 232 232 231 229 227 227 227 226 226 229 232 232 231 229 226 223 220 221 223 224 227 230 232 234 235
308 306 305 304 303 302 299 302 311 315 315 319 322 317 314 318 321 326 333 338 343 30 89 68 50 54 61 63 64 63 63 62 63 64 66 71 78 79 73 66 61 59 58 58 58 56 49 44 42 36 29 21 351 304 308 344 287 230 221 214 212 211 209 208 208 208 208 208 207 205 204 208 212 210 204 198 196 195 198 203 209 215 220 221 220 218 216
309 306 304 302 300 299 301 307 315 316 317 322 324 319 319 324 326 329 338 343 348 108 107 71 57 63 66 65 64 62 58 55 53 54 56 61 67 71 69 65 61 57 57 61 64 61 59 65 68 60 49 41 36 34 76 96 91 98 142 167 176 182 184 185 187 190 189 188 187 186 186 185 182 176 172 173 180 187 193 200 207 212 212 206 200 198 197
308 304 301 296 295 300 307 309 310 310 315 322 324 324 332 338 336 333 340 343 334 152 106 61 71 89 86 76 67 63 60 55 49 47 50 55 59 61 62 64 65 62 61 64 65 61 60 67 73 71 64 57 56 71 99 107 96 87 93 107 119 129 138 145 151 155 157 159 161 161 160 158 158 161 167 175 186 193 197 200 202 201 198 194 194 197 194
307 302 294 287 290 301 308 307 305 305 310 319 328 341 349 351 347 342 347 348 237 187 137 76 93 98 98 95 80 68 65 63 55 46 46 51 55 56 56 61 67 70 70 71 71 67 64 65 68 72 75 76 78 88 104 112 106 98 97 100 105 111 116 120 124 129 134 138 142 144 147 153 162 171 177 184 191 194 195 195 195 196 195 195 198 199 195
305 296 285 280 286 298 305 304 301 296 296 310 327 343 352 353 347 335 345 2 151 174 160 122 109 104 104 105 91 72 68 69 65 54 45 47 52 56 57 61 68 72 73 75 75 74 72 70 69 70 74 79 84 91 99 102 105 111 114 112 110 112 116 119 122 127 131 136 141 149 158 169 177 180 181 186 191 191 190 192 196 199 199 197 196 195 194
301 287 276 275 282 293 300 299 296 289 285 299 315 325 341 351 347 329 334 38 105 145 156 149 123 111 109 108 93 77 68 65 65 60 51 48 52 58 61 63 68 73 77 78 76 73 72 73 73 72 74 76 82 89 93 93 94 102 114 121 123 124 127 128 130 133 140 148 158 165 172 177 180 180 183 187 190 189 190 195 198 199 198 196 194 193 194
295 278 269 270 278 287 292 291 292 292 287 293 305 315 331 348 351 346 358 50 83 114 141 158 159 143 128 109 87 74 54 44 53 62 59 53 56 62 65 63 61 63 70 76 78 76 74 73 73 74 76 76 78 81 86 88 90 94 102 109 114 117 121 125 129 135 145 155 163 167 171 175 178 180 182 186 191 194 196 197 197 196 195 195 194 194 194
288 270 260 261 268 277 284 285 288 295 297 297 302 312 327 344 354 1 9 26 47 66 91 131 161 171 178 203 270 9 15 24 39 52 55 56 61 67 69 67 61 56 56 61 68 73 75 74 73 74 78 80 80 80 81 84 86 90 94 98 102 104 108 113 120 128 137 145 153 159 165 172 177 180 184 188 192 194 194 194 194 194 195 196 196 193 188
285 265 252 250 255 261 268 278 281 287 297 300 298 303 319 336 351 3 9 11 13 27 46 71 122 166 194 219 244 265 290 329 4 20 30 48 61 65 68 68 64 58 56 56 59 63 67 68 68 70 74 77 80 83 84 84 84 87 91 98 103 108 113 118 124 130 137 145 154 161 168 173 178 182 185 187 188 188 189 191 193 193 191 190 187 181 177
282 264 247 242 246 250 253 264 271 268 276 290 290 288 302 326 341 360 12 17 18 22 54 56 6 258 230 229 237 247 258 277 304 334 2 27 38 44 53 59 54 51 54 58 60 61 63 63 62 62 65 69 73 77 80 81 81 84 88 95 103 112 120 127 133 139 145 150 154 157 160 163 167 171 176 178 177 178 182 187 187 183 179 176 173 172 174
277 263 247 239 241 245 246 252 259 256 253 265 275 273 269 276 285 306 350 20 35 70 137 161 193 222 228 229 235 240 248 263 280 293 303 316 338 347 352 3 12 17 28 42 53 60 66 68 65 64 64 65 67 70 73 75 76 77 79 83 90 98 107 116 125 132 138 143 146 148 150 151 153 158 165 170 171 173 176 177 175 171 169 168 170 175 181
272 260 247 237 237 240 242 244 248 248 244 245 256 263 256 241 238 255 269 292 39 61 98 131 154 173 182 184 190 200 212 231 257 272 261 257 276 306 320 325 334 343 353 7 23 40 58 70 73 73 70 68 67 68 69 71 72 73 73 75 77 80 85 92 99 105 112 119 127 135 140 144 146 153 163 171 173 172 171 170 169 169 171 174 179 185 192
271 259 248 238 233 235 237 238 240 242 239 237 240 249 249 238 228 238 252 250 220 111 105 115 125 136 145 142 135 128 126 133 152 173 191 208 233 304 321 323 327 333 339 345 352 360 15 38 57 68 74 75 74 71 68 66 66 66 67 68 70 71 74 78 82 86 90 97 106 117 129 138 148 159 169 174 175 174 173 174 176 180 184 188 193 200 207
271 260 251 240 233 230 233 235 236 239 239 235 230 232 241 239 228 225 235 240 223 174 146 132 118 116 116 113 109 106 105 106 114 122 116 103 88 59 16 354 352 351 349 344 343 343 345 351 360 13 32 49 61 66 64 61 59 57 56 57 60 62 66 70 73 76 79 83 89 102 118 137 157 172 179 180 180 180 181 184 189 193 198 203 208 214 220
268 259 252 244 235 231 230 232 234 236 239 236 227 221 227 232 227 221 223 229 225 208 185 165 150 141 134 121 111 104 99 90 85 85 85 80 74 66 56 41 31 25 19 6 355 349 343 339 337 339 346 354 360 4 8 11 16 21 26 32 37 41 44 50 59 68 76 81 88 105 129 152 173 186 192 194 195 196 198 202 206 209 213 217 221 225 230
266 258 252 246 240 234 231 231 232 233 235 234 228 220 219 224 225 223 222 225 227 225 219 211 201 191 177 164 153 139 116 86 63 55 60 61 56 50 50 46 39 34 30 25 18 9 356 344 334 328 326 327 328 330 331 331 331 333 335 337 339 344 351 357 5 14 21 32 83 165 190 198 203 206 209 211 212 214 215 217 219 221 224 227 231 235 239
266 259 252 247 241 235 231 230 229 229 230 232 230 224 220 221 223 225 225 227 228 229 229 229 228 225 219 211 207 204 199 201 275 306 320 327 328 329 332 336 343 348 351 351 354 355 351 346 340 330 319 311 306 304 305 306 308 310 312 313 312 311 307 304 302 298 292 285 277 269 260 253 245 239 234 232 230 230 230 230 231 233 235 237 240 242 245
266 260 254 248 242 237 232 230 230 229 229 230 231 229 225 223 224 226 228 231 232 232 232 233 236 239 239 238 235 233 232 239 253 272 292 307 316 321 324 323 323 322 320 318 317 317 316 316 317 317 315 311 304 296 290 287 286 286 286 288 289 290 290 289 288 284 280 277 274 272 270 267 262 257 253 249 247 245 243 243 243 244 244 246 247 248 250
264 260 255 250 245 239 234 232 233 232 231 231 233 234 232 229 227 228 230 233 235 236 235 235 236 239 243 245 245 244 244 248 255 263 273 285 297 306 313 316 319 321 321 320 318 315 312 308 305 303 301 300 299 296 292 288 284 281 279 277 276 274 274 274 274 274 274 273 271 270 269 267 265 263 261 258 255 253 251 251 250 250 251 252 253 254 255
264 260 257 254 249 242 236 234 234 235 234 233 234 235 235 234 233 232 231 232 235 238 238 238 238 239 242 244 247 248 249 251 256 261 267 274 281 289 295 302 308 312 316 318 318 318 317 315 312 309 306 302 298 295 291 288 285 283 281 279 277 274 272 270 269 268 267 267 266 266 266 265 265 264 263 262 260 259 258 256 256 255 255 255 255 256 256
Height
5677 5679 5681 5682 5683 5683 5684 5684 5684 5684 5684 5684 5685 5686 5686 5687 5689 5688 5687 5688 5689 5689 5689 5688 5689 5691 5692 5693 5694 5694 5694 5695 5696 5697 5697 5698 5699 5699 5699 5699 5699 5700 5700 5700 5700 5700 5700 5700 5699 5699 5699 5699 5699 5699 5699 5700 5700 5701 5701 5701 5701 5701 5702 5703 5704 5704 5706 5707 5707 5708 5708 5709 5711 5710 5709 5708 5710 5710 5709 5711 5712 5713 5714 5715 5716 5716 5717
5673 5675 5676 5677 5679 5680 5680 5679 5680 5680 5680 5680 5681 5681 5682 5682 5684 5684 5684 5685 5685 5685 5685 5684 5683 5685 5686 5688 5689 5690 5689 5689 5690 5691 5692 5693 5694 5694 5694 5694 5694 5695 5695 5695 5695 5696 5697 5697 5696 5695 5695 5695 5695 5695 5695 5695 5696 5696 5697 5698 5698 5697 5698 5699 5699 5699 5701 5701 5702 5704 5705 5706 5706 5706 5704 5703 5705 5705 5705 5706 5707 5708 5709 5710 5710 5711 5711
5669 5670 5671 5672 5674 5675 5674 5674 5676 5676 5676 5676 5677 5678 5678 5678 5679 5679 5680 5680 5680 5679 5679 5678 5678 5679 5680 5681 5683 5684 5685 5685 5685 5685 5686 5687 5688 5688 5687 5687 5687 5689 5689 5689 5689 5690 5691 5692 5692 5692 5691 5691 5691 5691 5690 5690 5690 5691 5692 5693 5694 5694 5693 5694 5694 5694 5695 5695 5696 5697 5698 5698 5699 5699 5699 5699 5699 5700 5700 5701 5702 5703 5703 5704 5704 5705 5705
5664 5665 5665 5666 5668 5669 5668 5669 5671 5670 5670 5671 5672 5673 5674 5673 5673 5674 5675 5676 5675 5674 5673 5673 5673 5673 5674 5674 5676 5677 5678 5679 5680 5680 5679 5679 5680 5681 5680 5680 5681 5682 5682 5682 5682 5683 5683 5685 5687 5687 5686 5686 5686 5686 5686 5686 5686 5686 5686 5687 5688 5688 5688 5688 5688 5689 5689 5689 5689 5690 5691 5691 5692 5692 5692 5692 5692 5693 5693 5694 5695 5696 5697 5698 5699 5699 5699
5658 5659 5660 5661 5662 5662 5662 5663 5664 5663 5664 5666 5667 5667 5668 5668 5668 5669 5671 5671 5670 5668 5667 5667 5667 5667 5667 5667 5669 5670 5671 5672 5673 5673 5673 5673 5672 5673 5673 5673 5674 5675 5675 5675 5675 5675 5676 5678 5680 5681 5681 5681 5681 5681 5681 5682 5682 5682 5682 5683 5683 5683 5683 5683 5683 5683 5684 5684 5684 5685 5685 5685 5686 5685 5685 5685 5686 5686 5687 5688 5689 5690 5691 5692 5692 5692 5693
5652 5653 5655 5656 5656 5656 5656 5656 5657 5657 5658 5660 5661 5661 5662 5662 5663 5664 5665 5665 5664 5662 5662 5662 5662 5662 5661 5661 5662 5664 5665 5666 5666 5667 5667 5667 5666 5666 5666 5667 5668 5669 5669 5669 5669 5669 5670 5672 5674 5675 5675 5675 5675 5675 5675 5676 5677 5678 5678 5678 5678 5678 5678 5679 5679 5679 5679 5679 5680 5680 5680 5680 5681 5680 5680 5680 5681 5681 5682 5683 5684 5684 5685 5685 5685 5686 5686
5644 5645 5647 5648 5648 5650 5650 5650 5650 5651 5652 5653 5654 5654 5655 5656 5656 5657 5659 5659 5658 5656 5655 5656 5657 5656 5655 5655 5656 5657 5658 5659 5660 5660 5661 5661 5661 5660 5660 5661 5661 5663 5663 5662 5662 5663 5664 5665 5666 5667 5667 5668 5669 5669 5669 5669 5670 5671 5672 5673 5673 5673 5673 5673 5674 5674 5674 5674 5675 5675 5675 5675 5676 5676 5676 5676 5676 5676 5677 5678 5678 5679 5679 5680 5680 5680 5680
5637 5638 5639 5640 5640 5643 5644 5644 5644 5645 5646 5647 5647 5647 5647 5649 5649 5650 5652 5652 5652 5650 5648 5649 5651 5650 5649 5649 5650 5651 5652 5652 5652 5653 5653 5655 5655 5655 5655 5655 5656 5657 5657 5655 5655 5657 5658 5658 5657 5657 5659 5660 5661 5661 5662 5662 5663 5663 5664 5665 5666 5667 5668 5668 5668 5668 5669 5669 5669 5670 5670 5670 5670 5670 5671 5671 5671 5672 5672 5673 5673 5674 5674 5674 5674 5674 5674
5632 5632 5633 5633 5633 5635 5637 5638 5639 5639 5640 5641 5641 5640 5640 5640 5641 5643 5644 5645 5645 5643 5641 5641 5643 5643 5642 5642 5642 5643 5644 5644 5644 5644 5645 5647 5648 5648 5648 5648 5649 5651 5651 5650 5650 5651 5651 5650 5649 5649 5650 5652 5652 5653 5655 5655 5655 5655 5656 5656 5658 5659 5660 5661 5661 5662 5662 5663 5663 5663 5664 5664 5664 5665 5665 5665 5666 5666 5666 5667 5667 5667 5667 5667 5667 5667 5667
5626 5627 5628 5627 5626 5628 5631 5632 5633 5634 5634 5634 5634 5633 5633 5632 5633 5634 5635 5636 5637 5637 5636 5635 5636 5636 5635 5634 5634 5635 5635 5636 5636 5636 5636 5638 5640 5640 5640 5641 5641 5642 5643 5644 5645 5646 5645 5643 5642 5642 5643 5644 5644 5645 5646 5647 5648 5648 5648 5648 5649 5650 5652 5652 5653 5654 5655 5656 5656 5656 5657 5657 5658 5658 5659 5659 5659 5660 5660 5660 5660 5661 5661 5661 5660 5660 5660
5620 5621 5622 5621 5621 5623 5624 5625 5626 5628 5628 5627 5628 5627 5626 5625 5626 5626 5627 5627 5629 5630 5630 5630 5630 5630 5629 5628 5628 5627 5627 5628 5628 5628 5627 5628 5630 5631 5632 5632 5633 5633 5634 5635 5636 5638 5638 5637 5637 5636 5636 5636 5636 5636 5637 5639 5641 5642 5642 5642 5642 5642 5644 5645 5646 5647 5648 5649 5649 5649 5650 5650 5651 5651 5652 5652 5653 5653 5653 5653 5654 5654 5655 5654 5654 5653 5653
5614 5615 5615 5615 5615 5616 5616 5618 5620 5621 5621 5621 5621 5619 5618 5619 5621 5621 5620 5620 5621 5622 5623 5623 5624 5624 5623 5623 5622 5621 5620 5620 5620 5620 5619 5619 5619 5621 5622 5623 5624 5624 5625 5626 5627 5628 5628 5629 5629 5629 5628 5628 5628 5629 5629 5631 5633 5635 5636 5636 5635 5635 5636 5637 5638 5640 5641 5642 5643 5643 5643 5644 5644 5645 5645 5646 5646 5646 5646 5647 5648 5648 5648 5648 5648 5647 5646
5608 5609 5608 5608 5608 5608 5609 5610 5612 5613 5613 5613 5612 5612 5613 5614 5615 5615 5614 5614 5614 5614 5614 5615 5616 5616 5616 5616 5616 5615 5614 5613 5613 5612 5611 5611 5610 5611 5611 5612 5614 5615 5616 5617 5618 5619 5620 5620 5621 5621 5621 5620 5620 5621 5622 5624 5626 5627 5628 5628 5628 5628 5629 5630 5630 5631 5632 5634 5635 5637 5637 5637 5638 5638 5639 5639 5639 5639 5639 5640 5641 5642 5642 5642 5641 5641 5640
5603 5603 5602 5602 5602 5602 5601 5602 5604 5605 5605 5605 5605 5605 5607 5608 5607 5607 5607 5607 5607 5607 5607 5607 5608 5608 5608 5608 5608 5607 5607 5606 5605 5604 5603 5602 5602 5602 5602 5603 5604 5605 5607 5608 5609 5610 5611 5612 5612 5612 5613 5613 5612 5613 5614 5616 5617 5617 5619 5619 5619 5619 5620 5621 5622 5622 5623 5624 5626 5628 5630 5630 5631 5632 5632 5632 5631 5631 5632 5633 5634 5635 5635 5635 5635 5634 5634
5597 5597 5596 5596 5596 5596 5596 5596 5598 5598 5598 5598 5598 5599 5600 5600 5600 5600 5600 5600 5600 5599 5599 5598 5598 5598 5599 5598 5598 5599 5598 5598 5597 5597 5595 5594 5594 5594 5594 5594 5594 5595 5596 5597 5598 5600 5601 5602 5603 5603 5603 5604 5604 5604 5605 5606 5607 5608 5609 5610 5610 5610 5610 5612 5613 5614 5614 5615 5616 5618 5620 5622 5623 5624 5624 5625 5625 5625 5625 5626 5627 5628 5629 5628 5628 5628 5627
5593 5592 5591 5590 5590 5591 5592 5592 5592 5592 5592 5592 5593 5593 5593 5593 5593 5593 5592 5591 5591 5590 5590 5589 5589 5589 5589 5589 5589 5590 5589 5589 5589 5589 5588 5587 5586 5585 5586 5586 5585 5585 5585 5586 5588 5589 5590 5591 5592 5593 5593 5594 5595 5595 5595 5596 5597 5598 5599 5600 5601 5602 5602 5603 5603 5604 5605 5606 5607 5608 5610 5611 5613 5615 5616 5617 5619 5619 5620 5620 5621 5622 5622 5622 5621 5621 5621
5589 5588 5587 5586 5586 5586 5586 5587 5587 5587 5587 5587 5587 5587 5586 5585 5584 5584 5584 5583 5582 5582 5582 5581 5581 5581 5581 5581 5581 5580 5580 5580 5579 5580 5580 5579 5578 5577 5577 5577 5577 5576 5576 5577 5578 5579 5580 5580 5581 5582 5583 5584 5585 5586 5587 5587 5587 5588 5589 5590 5591 5593 5595 5596 5596 5596 5597 5598 5599 5600 5601 5602 5605 5606 5607 5608 5610 5611 5613 5614 5615 5616 5616 5616 5616 5615 5615
5584 5584 5583 5583 5582 5582 5581 5581 5582 5581 5581 5581 5580 5579 5578 5577 5576 5576 5576 5575 5575 5574 5573 5573 5573 5572 5572 5572 5572 5571 5570 5570 5569 5569 5569 5569 5568 5567 5567 5568 5567 5567 5567 5568 5569 5569 5570 5569 5570 5570 5571 5572 5574 5576 5577 5578 5578 5579 5579 5580 5582 5583 5585 5587 5588 5589 5589 5590 5591 5592 5593 5595 5597 5598 5599 5600 5601 5603 5604 5606 5607 5608 5609 5610 5610 5610 5609
5579 5579 5579 5578 5578 5578 5577 5577 5576 5575 5574 5573 5572 5571 5571 5570 5570 5569 5568 5567 5567 5566 5565 5565 5565 5564 5563 5562 5563 5561 5560 5559 5559 5558 5559 5559 5558 5557 5557 5557 5557 5557 5558 5559 5560 5560 5560 5560 5559 5559 5560 5561 5563 5565 5567 5568 5568 5568 5569 5570 5572 5573 5574 5576 5578 5580 5581 5582 5583 5584 5585 5587 5588 5590 5591 5593 5594 5595 5596 5598 5598 5600 5601 5603 5604 5604 5603
5573 5574 5574 5573 5572 5571 5571 5570 5570 5569 5568 5567 5566 5565 5564 5564 5563 5562 5561 5560 5559 5558 5557 5557 5556 5556 5554 5553 5553 5552 5550 5549 5549 5548 5549 5549 5548 5547 5547 5546 5546 5546 5547 5549 5549 5550 5551 5551 5550 5549 5550 5551 5552 5554 5556 5557 5557 5558 5559 5560 5561 5563 5565 5566 5567 5569 5571 5573 5575 5575 5576 5578 5581 5582 5584 5585 5586 5588 5589 5590 5591 5592 5594 5595 5596 5597 5596
5568 5569 5568 5568 5566 5565 5564 5564 5564 5565 5564 5563 5561 5559 5558 5557 5557 5556 5554 5552 5551 5550 5549 5548 5547 5546 5544 5543 5543 5542 5541 5540 5539 5539 5539 5539 5538 5537 5537 5536 5535 5535 5536 5537 5538 5540 5541 5542 5541 5540 5541 5542 5543 5543 5545 5546 5547 5547 5549 5550 5551 5553 5555 5556 5558 5559 5561 5563 5565 5567 5568 5570 5573 5575 5576 5577 5579 5580 5582 5584 5585 5585 5586 5588 5589 5589 5590
5564 5564 5564 5563 5561 5560 5559 5559 5559 5559 5559 5557 5556 5554 5553 5552 5551 5550 5548 5546 5544 5542 5541 5539 5538 5536 5535 5534 5533 5532 5531 5530 5529 5529 5528 5528 5528 5527 5526 5525 5525 5524 5525 5525 5527 5529 5531 5531 5531 5531 5533 5534 5534 5534 5535 5536 5536 5538 5539 5540 5542 5544 5545 5547 5548 5550 5551 5553 5556 5558 5561 5563 5565 5567 5568 5569 5571 5573 5575 5577 5578 5578 5579 5581 5582 5582 5583
5560 5559 5558 5558 5557 5556 5556 5555 5554 5554 5553 5551 5550 5549 5548 5546 5545 5544 5542 5540 5538 5536 5533 5531 5530 5528 5527 5525 5524 5522 5521 5520 5519 5518 5518 5517 5518 5517 5516 5515 5515 5514 5514 5514 5515 5516 5518 5518 5519 5521 5522 5524 5524 5524 5524 5525 5526 5528 5529 5531 5533 5534 5536 5537 5539 5541 5543 5544 5546 5550 5553 5555 5557 5559 5560 5562 5564 5567 5568 5569 5570 5571 5572 5574 5575 5576 5577
5554 5554 5553 5553 5552 5552 5551 5550 5549 5549 5548 5546 5544 5543 5541 5540 5538 5537 5535 5533 5531 5529 5527 5525 5522 5520 5519 5517 5515 5514 5513 5511 5509 5509 5508 5508 5508 5507 5506 5506 5505 5505 5505 5504 5504 5505 5506 5506 5507 5509 5510 5512 5513 5513 5513 5514 5515 5517 5518 5520 5523 5525 5526 5528 5530 5532 5534 5535 5538 5541 5545 5547 5549 5551 5553 5555 5557 5559 5561 5562 5564 5565 5566 5567 5568 5570 5570
5550 5549 5548 5548 5547 5546 5546 5544 5543 5543 5541 5540 5538 5536 5535 5533 5531 5530 5528 5526 5524 5522 5521 5519 5517 5514 5512 5511 5509 5507 5506 5504 5503 5502 5501 5500 5499 5498 5498 5497 5496 5496 5496 5495 5495 5496 5496 5496 5496 5497 5499 5501 5501 5501 5502 5503 5504 5505 5507 5509 5512 5515 5517 5519 5520 5522 5525 5527 5530 5533 5536 5538 5540 5544 5547 5549 5550 5552 5554 5556 5557 5558 5560 5561 5562 5563 5564
5546 5545 5544 5543 5542 5541 5540 5539 5538 5536 5535 5533 5531 5530 5528 5526 5525 5523 5522 5520 5519 5517 5516 5514 5512 5510 5508 5506 5504 5502 5500 5499 5498 5496 5495 5494 5492 5491 5490 5489 5488 5488 5488 5488 5488 5488 5488 5488 5488 5488 5489 5490 5490 5490 5491 5492 5493 5495 5496 5498 5501 5504 5507 5509 5511 5513 5516 5519 5522 5525 5527 5530 5533 5536 5539 5541 5543 5545 5547 5549 5551 5552 5554 5555 5557 5557 5558
5542 5541 5540 5539 5537 5536 5535 5533 5532 5530 5528 5527 5525 5524 5522 5521 5520 5518 5517 5516 5515 5513 5512 5510 5508 5506 5503 5501 5499 5497 5496 5494 5493 5491 5489 5488 5487 5486 5485 5484 5483 5483 5482 5482 5482 5481 5481 5481 5480 5480 5481 5482 5481 5481 5481 5482 5483 5485 5487 5489 5491 5494 5497 5499 5502 5504 5507 5510 5513 5516 5519 5523 5526 5528 5531 5534 5536 5538 5540 5543 5544 5546 5548 5549 5550 5551 5552
5538 5537 5535 5534 5533 5532 5530 5528 5527 5525 5523 5521 5521 5520 5519 5517 5516 5515 5514 5513 5512 5510 5508 5506 5504 5502 5500 5497 5495 5493 5491 5490 5488 5487 5486 5485 5484 5483 5482 5481 5480 5479 5478 5477 5476 5475 5475 5474 5474 5474 5475 5474 5473 5473 5473 5474 5475 5476 5478 5480 5482 5484 5487 5490 5493 5495 5498 5502 5505 5508 5512 5515 5518 5521 5524 5526 5529 5532 5535 5537 5538 5540 5542 5543 5544 5546 5547
5533 5532 5531 5530 5528 5527 5525 5524 5522 5521 5519 5518 5518 5517 5516 5515 5514 5513 5512 5511 5510 5508 5506 5504 5501 5499 5496 5494 5491 5489 5488 5487 5486 5484 5483 5482 5481 5480 5479 5478 5476 5475 5474 5473 5472 5471 5470 5469 5469 5469 5469 5468 5467 5467 5467 5467 5468 5470 5471 5472 5474 5476 5479 5481 5484 5487 5490 5494 5497 5501 5504 5507 5511 5514 5517 5520 5523 5526 5529 5531 5533 5534 5536 5538 5539 5540 5541
5529 5528 5526 5525 5524 5523 5521 5520 5519 5518 5517 5516 5516 5515 5514 5513 5512 5511 5510 5509 5507 5505 5503 5502 5499 5497 5495 5492 5490 5488 5486 5485 5484 5483 5482 5480 5479 5478 5477 5476 5474 5473 5471 5470 5469 5468 5467 5466 5466 5465 5465 5464 5463 5463 5463 5463 5463 5464 5465 5466 5468 5470 5472 5474 5476 5479 5483 5486 5490 5494 5497 5501 5505 5508 5511 5514 5517 5521 5523 5525 5527 5529 5531 5533 5534 5535 5536
5525 5524 5523 5521 5520 5519 5518 5517 5516 5515 5515 5514 5514 5513 5512 5511 5510 5509 5508 5507 5505 5504 5502 5501 5499 5497 5495 5492 5490 5488 5487 5485 5484 5483 5481 5480 5479 5478 5477 5475 5474 5472 5471 5469 5468 5467 5466 5465 5464 5463 5463 5462 5461 5461 5461 5461 5461 5461 5461 5462 5463 5465 5467 5468 5471 5473 5477 5480 5484 5488 5492 5496 5499 5503 5506 5510 5513 5516 5518 5521 5523 5525 5526 5528 5530 5531 5532
5522 5521 5519 5518 5517 5517 5516 5515 5514 5514 5513 5513 5512 5511 5511 5510 5509 5508 5507 5505 5504 5503 5502 5501 5499 5497 5495 5494 5492 5491 5489 5487 5486 5484 5483 5482 5481 5479 5477 5476 5474 5473 5472 5470 5469 5468 5467 5465 5464 5463 5462 5462 5461 5460 5460 5460 5459 5459 5459 5460 5461 5462 5463 5465 5467 5470 5472 5476 5480 5484 5489 5493 5496 5499 5502 5506 5509 5512 5514 5517 5519 5521 5523 5525 5526 5527 5528
5519 5517 5516 5515 5515 5514 5514 5513 5512 5512 5512 5511 5511 5510 5509 5509 5508 5507 5506 5505 5504 5503 5502 5501 5500 5498 5497 5496 5494 5493 5491 5490 5488 5487 5485 5484 5482 5480 5478 5477 5476 5475 5474 5472 5470 5469 5468 5467 5465 5464 5463 5462 5461 5460 5460 5459 5459 5458 5458 5459 5460 5461 5462 5464 5466 5468 5470 5474 5477 5481 5486 5490 5494 5497 5500 5503 5506 5509 5512 5514 5517 5519 5521 5522 5523 5525 5526
5516 5514 5513 5513 5513 5512 5512 5511 5511 5511 5510 5510 5509 5509 5508 5507 5507 5506 5505 5504 5503 5503 5502 5501 5500 5499 5498 5497 5496 5495 5493 5492 5490 5488 5486 5484 5483 5481 5480 5479 5478 5477 5476 5474 5473 5471 5470 5468 5467 5465 5464 5463 5462 5461 5460 5460 5460 5459 5459 5459 5460 5461 5462 5464 5466 5468 5470 5473 5476 5480 5484 5488 5492 5495 5499 5502 5505 5508 5510 5512 5515 5517 5519 5520 5522 5523 5524
5513 5512 5511 5511 5511 5510 5510 5510 5510 5509 5509 5509 5508 5508 5507 5506 5506 5505 5505 5504 5503 5503 5502 5501 5500 5500 5499 5499 5497 5496 5494 5493 5491 5489 5488 5486 5484 5483 5482 5481 5480 5479 5478 5477 5475 5474 5472 5470 5468 5467 5466 5465 5464 5463 5462 5463 5463 5462 5461 5461 5461 5462 5463 5465 5467 5469 5471 5474 5477 5481 5485 5488 5492 5496 5499 5502 5505 5507 5509 5511 5514 5515 5517 5519 5520 5522 5523
5511 5510 5510 5510 5509 5509 5509 5509 5508 5508 5508 5508 5508 5507 5506 5506 5505 5505 5505 5504 5503 5502 5502 5502 5501 5500 5500 5499 5498 5497 5495 5494 5492 5491 5489 5487 5486 5485 5484 5484 5483 5482 5481 5479 5478 5476 5474 5472 5471 5469 5468 5467 5466 5465 5465 5466 5466 5466 5466 5465 5465 5466 5467 5468 5470 5472 5474 5477 5480 5483 5487 5490 5493 5496 5499 5502 5504 5506 5508 5510 5512 5514 5516 5518 5519 5520 5522
5509 5508 5508 5508 5508 5508 5508 5507 5507 5507 5507 5507 5507 5507 5506 5505 5505 5504 5504 5503 5502 5502 5502 5502 5501 5501 5500 5500 5499 5498 5497 5495 5493 5492 5491 5489 5488 5487 5486 5486 5485 5484 5483 5481 5480 5478 5476 5475 5473 5472 5471 5470 5469 5468 5468 5468 5469 5469 5470 5470 5471 5471 5472 5473 5475 5477 5479 5481 5484 5486 5489 5492 5494 5497 5499 5501 5503 5505 5507 5510 5511 5513 5515 5516 5518 5520 5521
5507 5507 5507 5507 5507 5506 5506 5506 5506 5506 5506 5506 5506 5506 5506 5505 5504 5504 5503 5503 5502 5502 5502 5502 5501 5501 5501 5500 5499 5499 5498 5496 5494 5493 5492 5491 5490 5489 5488 5488 5487 5486 5485 5483 5482 5481 5479 5478 5477 5476 5476 5475 5474 5472 5472 5472 5472 5472 5473 5474 5475 5476 5477 5478 5479 5481 5483 5485 5487 5489 5491 5493 5495 5497 5499 5501 5503 5505 5507 5509 5510 5512 5513 5515 5517 5519 5521
5505 5505 5505 5505 5505 5505 5505 5505 5505 5505 5505 5505 5505 5505 5505 5504 5504 5503 5502 5502 5501 5501 5502 5501 5501 5501 5501 5500 5500 5499 5498 5497 5496 5494 5494 5493 5492 5492 5491 5491 5490 5489 5487 5485 5484 5483 5482 5481 5480 5480 5479 5479 5478 5477 5476 5476 5476 5476 5477 5478 5478 5479 5480 5481 5483 5484 5486 5487 5489 5490 5492 5494 5496 5497 5499 5501 5503 5505 5506 5508 5510 5511 5513 5514 5516 5518 5519
5503 5504 5504 5504 5504 5504 5504 5504 5504 5504 5504 5504 5504 5504 5504 5504 5503 5502 5502 5501 5501 5501 5501 5501 5501 5501 5501 5500 5500 5499 5499 5498 5497 5496 5495 5495 5494 5494 5494 5493 5492 5491 5490 5488 5487 5486 5485 5484 5483 5483 5482 5482 5482 5481 5481 5480 5480 5480 5481 5481 5482 5483 5484 5485 5486 5487 5488 5489 5491 5492 5493 5495 5496 5498 5500 5501 5503 5504 5506 5507 5509 5510 5512 5513 5515 5516 5518
5502 5502 5502 5503 5503 5503 5503 5503 5503 5503 5503 5504 5504 5504 5504 5504 5503 5502 5502 5501 5501 5501 5500 5501 5501 5501 5500 5500 5500 5499 5499 5499 5498 5498 5497 5496 5496 5495 5495 5495 5494 5493 5492 5491 5490 5489 5487 5487 5486 5486 5485 5485 5484 5484 5484 5484 5484 5484 5484 5484 5485 5485 5486 5487 5488 5489 5490 5491 5492 5493 5495 5496 5497 5498 5500 5501 5502 5504 5505 5507 5508 5509 5511 5512 5514 5516 5517
5499 5500 5501 5501 5501 5501 5502 5502 5502 5502 5502 5503 5503 5503 5503 5503 5503 5503 5502 5502 5501 5501 5501 5500 5501 5501 5500 5500 5500 5500 5499 5499 5499 5498 5498 5497 5497 5496 5496 5496 5495 5495 5494 5494 5492 5491 5490 5490 5489 5489 5488 5488 5487 5487 5487 5487 5487 5487 5487 5488 5488 5488 5489 5489 5490 5491 5491 5492 5493 5494 5495 5496 5497 5498 5500 5501 5502 5503 5504 5506 5507 5509 5510 5512 5514 5516 5518
5497 5498 5499 5499 5500 5500 5500 5501 5501 5501 5501 5502 5502 5502 5502 5502 5502 5502 5502 5502 5502 5501 5501 5501 5501 5500 5500 5500 5500 5500 5499 5499 5499 5499 5498 5498 5497 5497 5497 5496 5496 5496 5495 5495 5494 5494 5493 5492 5492 5492 5491 5490 5490 5490 5489 5489 5489 5489 5489 5490 5490 5491 5491 5492 5492 5492 5493 5493 5494 5495 5495 5496 5497 5498 5500 5501 5502 5503 5504 5506 5507 5509 5511 5513 5515 5516 5518
5495 5495 5496 5497 5498 5498 5498 5499 5499 5500 5500 5501 5501 5501 5501 5501 5502 5502 5502 5502 5502 5501 5501 5501 5501 5500 5500 5500 5499 5499 5499 5499 5499 5498 5498 5498 5497 5497 5497 5496 5496 5496 5496 5495 5495 5495 5495 5494 5494 5494 5494 5493 5493 5492 5492 5492 5492 5492 5492 5492 5492 5492 5492 5493 5493 5494 5494 5495 5495 5496 5496 5497 5498 5499 5500 5501 5502 5504 5505 5506 5508 5509 5511 5513 5514 5516 5517
5493 5493 5494 5495 5495 5496 5496 5497 5498 5498 5499 5499 5499 5500 5500 5501 5501 5501 5501 5501 5501 5501 5501 5501 5500 5500 5500 5499 5499 5499 5499 5499 5499 5498 5498 5498 5498 5497 5497 5497 5496 5496 5496 5496 5496 5496 5495 5495 5495 5495 5495 5495 5495 5495 5495 5495 5494 5494 5494 5494 5494 5494 5494 5494 5494 5495 5495 5495 5496 5497 5497 5498 5499 5500 5501 5502 5503 5504 5506 5507 5508 5510 5511 5512 5513 5515 5516
5491 5491 5491 5492 5493 5493 5494 5495 5495 5496 5497 5497 5498 5498 5499 5499 5499 5500 5500 5500 5500 5500 5500 5500 5500 5500 5499 5499 5499 5499 5499 5499 5499 5498 5498 5498 5498 5498 5497 5497 5497 5496 5496 5496 5496 5496 5496 5496 5496 5496 5496 5496 5496 5496 5497 5497 5497 5497 5496 5496 5496 5496 5496 5496 5496 5496 5497 5497 5497 5498 5498 5499 5500 5501 5502 5503 5504 5505 5506 5507 5508 5509 5510 5511 5512 5513 5514
5489 5488 5488 5489 5490 5491 5491 5492 5493 5494 5495 5495 5496 5496 5497 5498 5498 5498 5499 5499 5499 5499 5499 5499 5499 5499 5499 5499 5499 5499 5499 5499 5499 5498 5498 5498 5498 5498 5498 5497 5497 5497 5496 5496 5496 5496 5496 5496 5496 5496 5496 5496 5496 5496 5497 5497 5497 5498 5498 5498 5498 5498 5498 5498 5498 5498 5498 5498 5499 5499 5499 5500 5500 5501 5502 5503 5504 5505 5505 5506 5507 5508 5509 5510 5511 5511 5512
5486 5486 5486 5486 5487 5488 5489 5489 5491 5492 5492 5493 5493 5494 5495 5495 5496 5496 5497 5497 5497 5498 5498 5498 5498 5498 5498 5498 5498 5498 5498 5498 5498 5498 5498 5498 5498 5498 5498 5497 5497 5497 5496 5496 5496 5496 5496 5496 5496 5496 5496 5496 5496 5496 5496 5497 5497 5497 5498 5498 5498 5498 5499 5499 5499 5499 5499 5499 5500 5500 5500 5501 5501 5501 5502 5502 5503 5504 5504 5505 5506 5507 5507 5508 5508 5509 5510
5483 5483 5483 5483 5484 5485 5486 5486 5487 5488 5489 5490 5491 5492 5492 5493 5494 5494 5495 5495 5496 5496 5496 5496 5497 5497 5497 5497 5497 5497 5497 5497 5497 5497 5497 5497 5497 5497 5497 5497 5497 5497 5496 5496 5496 5496 5496 5496 5496 5496 5496 5496 5496 5496 5496 5496 5496 5497 5497 5497 5497 5498 5498 5498 5499 5499 5499 5499 5500 5500 5500 5501 5501 5501 5501 5502 5502 5503 5503 5504 5504 5505 5505 5505 5506 5506 5507
5480 5480 5480 5480 5481 5482 5483 5483 5484 5485 5486 5487 5488 5489 5490 5490 5491 5492 5493 5493 5494 5494 5495 5495 5495 5495 5496 5496 5496 5496 5496 5496 5496 5496 5496 5496 5496 5496 5496 5496 5496 5496 5496 5495 5495 5495 5495 5495 5495 5495 5495 5495 5495 5495 5495 5495 5495 5496 5496 5496 5496 5497 5497 5497 5497 5498 5498 5499 5499 5499 5499 5500 5500 5500 5500 5501 5501 5501 5501 5502 5502 5502 5502 5503 5503 5503 5504
5477 5477 5477 5477 5477 5478 5479 5480 5480 5481 5483 5484 5485 5486 5487 5488 5488 5489 5490 5491 5492 5492 5492 5493 5493 5494 5494 5494 5494 5495 5495 5495 5495 5495 5495 5495 5495 5495 5495 5495 5495 5494 5494 5494 5494 5494 5494 5494 5494 5494 5494 5494 5494 5494 5494 5494 5494 5494 5494 5494 5495 5495 5495 5495 5496 5496 5496 5496 5497 5497 5497 5497 5498 5498 5498 5498 5499 5499 5499 5499 5499 5499 5500 5500 5500 5500 5500
5474 5474 5474 5474 5474 5475 5476 5477 5477 5478 5479 5481 5482 5483 5484 5484 5485 5486 5487 5488 5489 5489 5490 5490 5491 5491 5492 5492 5492 5492 5493 5493 5493 5493 5493 5493 5493 5493 5493 5493 5493 5493 5493 5493 5492 5492 5492 5492 5492 5492 5491 5492 5492 5492 5492 5492 5492 5492 5492 5492 5492 5492 5492 5492 5493 5493 5493 5494 5494 5494 5494 5494 5494 5494 5495 5495 5495 5496 5496 5496 5496 5496 5497 5497 5497 5497 5497